Regional Weather Roundup
Issued by NWS Grand Forks, ND

Home | Current Version | Previous Version | Text Only | Print | Product List | Glossary Off
Versions: 1 2 3 4 5 6 7 8 9 10 11 12 13 14 15 16 17 18 19 20 21 22 23 24 25 26 27 28 29 30 31 32 33 34 35 36 37 38 39 40 41 42 43 44 45 46 47 48 49 50

215
ASUS43 KFGF 230431
RWRFGF
PRAIRIE TO PINES  WEATHER ROUNDUP
NATIONAL WEATHER SERVICE EASTERN NORTH DAKOTA/GRAND FORKS ND
1100 PM CDT TUE AUG 22 2017

 **SATELLITE DATA USED TO AUGMENT SKY COVER AT AUTOMATED STATIONS**
 *****  WEATHER ACROSS EASTERN NORTH DAKOTA  *****

CITY           SKY/WX    TMP DP  RH WIND       PRES   REMARKS
GRAND FORKS    FAIR      54  48  80 NW5       30.08R
GRAND FRKS AFB FAIR      49  46  89 NW5       30.09R
DEVILS LAKE    FAIR      53  47  79 NE6       30.11R
FARGO          FAIR      57  47  69 W3        30.08R
WAHPETON ARPT  FAIR      52  46  82 W3        30.10R
$$

 ***** WEATHER ACROSS CENTRAL AND WESTERN NORTH DAKOTA  *****

CITY           SKY/WX    TMP DP  RH WIND       PRES   REMARKS
BISMARCK       FAIR      59  49  69 CALM      30.12S
MINOT          FAIR      61  44  53 SE3       30.09F
JAMESTOWN      FAIR      54  49  83 CALM      30.11R
MINOT AFB      FAIR      57  44  60 S6        30.08S
GARRISON         N/A     58  44  60 CALM      30.11S
WILLISTON      FAIR      68  45  43 S5        30.08S
DICKINSON      FAIR      55  43  63 SE7       30.12R
HETTINGER      FAIR      61  45  55 E13       30.15R
$$

 *****  OTHER AIRPORT OBSERVATIONS IN OUR AREA  *****

CITY           SKY/WX    TMP DP  RH WIND       PRES   REMARKS
WALHALLA       FAIR      52  52 100 CALM      30.09S
GRAFTON AIRPOR FAIR      55  52  88 NW5       30.10S
VALLEY CITY AR   N/A     52  50  93 CALM      30.13R
CANDO          MOCLDY    52  52 100 CALM      30.12S
CAVALIER APRT  FAIR      52  48  87 CALM      30.09R
GWINNER        CLEAR     54  50  87 CALM      30.12R
SHEYENNE NWR     N/A     55  48  77 CALM      29.95S
ROLLA          FAIR      52  46  82 CALM      30.11S
 ***** THE ABOVE OBSERVATIONS ARE NON NWS ARE NOT QUALITY
       CONTROLLED AND MAY MIS-REPORT RAIN FOR SNOW...
$$

  *****  WEATHER ACROSS NORTHERN MINNESOTA  *****

CITY           SKY/WX    TMP DP  RH WIND       PRES   REMARKS
FLAG ISLAND    FAIR      61  48  63 N7        30.04R
WARROAD        FAIR      54  48  82 CALM      30.06S
ROSEAU         FAIR      57  52  82 NW5       30.06S
HALLOCK        FAIR      52  48  87 N3        30.08R
THF RVR FALLS  FAIR      55  48  77 N3        30.09R
BAUDETTE       MOCLDY    56  50  80 N5        30.04R
WASKISH        FAIR      57  54  88 N5        30.05R
CROOKSTON      FAIR      52  45  76 W3        30.09R
STEPHEN NDAWN    N/A     54  46  76 NW3         N/A
GREENBUSH NDAW   N/A     48  48 100 W3          N/A
$$
  *****  WEATHER ACROSS CENTRAL AND WEST MINNESOTA  *****

CITY           SKY/WX    TMP DP  RH WIND       PRES   REMARKS
FOSSTON        FAIR      48  43  81 CALM      30.08S
BEMIDJI        FAIR      50  48  93 NW3       30.06R
PARK RAPIDS    FAIR      54  48  80 NW6       30.07R
ELBOW LAKE     FAIR      56  50  78 NW3       30.11R
WADENA         FAIR      54  46  76 W3        30.08R
DETROIT LAKES  FAIR      57  46  67 NW3       30.09S
MOORHEAD       FAIR      55  46  71 CALM      30.09S
FERGUS FALLS   FAIR      57  48  72 CALM      30.10R
MORRIS MN      FAIR      55  50  82 NW6       30.10S
STAPLES        FAIR      52  45  76 W3        30.07R
$$
  *****  WEATHER ELSEWHERE ACROSS MINNESOTA  *****

CITY           SKY/WX    TMP DP  RH WIND       PRES   REMARKS
DULUTH         FAIR      54  52  93 NW8       30.00R
INTRNTL FALLS  FAIR      51  47  86 NW6       30.02R
ELY            CLOUDY    54  52  94 NW6       29.99R
CLOQUET        FAIR      54  48  82 W6        30.01S
WHEATON        FAIR      55  48  76 W6        30.13R
BRAINERD       FAIR      60  47  61 W5        30.05R
HIBBING        FAIR      54  49  83 NW9       30.01R
ALEXANDRIA     FAIR      57  50  77 W5        30.11R
SAINT CLOUD    FAIR      58  50  75 W7        30.06R
MINNEAPOLIS    FAIR      64  49  57 W8        30.04S
$$

  *****  WEATHER ACROSS SOUTH DAKOTA  *****

CITY           SKY/WX    TMP DP  RH WIND       PRES   REMARKS
SIOUX FALLS    FAIR      57  54  89 CALM      30.15R
BROOKINGS      FAIR      57  51  80 CALM      30.15R
WATERTOWN      FAIR      58  49  72 CALM      30.14R
HURON          FAIR      57  51  80 CALM      30.13R
SISSETON         N/A     53  49  86 W6        30.11R
ABERDEEN       FAIR      54  50  86 CALM      30.13R
MITCHELL       FAIR      63  51  65 S3        30.15R
PIERRE         FAIR      63  50  62 E9        30.11R
MOBRIDGE       FAIR      64  50  60 E10       30.11R
RAPID CITY     FAIR      66  45  46 SE3       30.10S
$$

  *****  SOME WEATHER IN NEARBY STATES *****

CITY           SKY/WX    TMP DP  RH WIND       PRES   REMARKS
GLASGOW MT     FAIR      70  35  27 E14       30.03R
GREAT FALLS MT FAIR      70  31  23 E7        30.04R
CHEYENNE WY    FAIR      64  53  67 SE10      30.25S
SCOTTSBLUFF NE FAIR      67  53  61 E12       30.16R
OMAHA NE       FAIR      62  56  80 CALM      30.15S
DES MOINES IA  FAIR      63  53  70 W5        30.12R
DAVENPORT IA   FAIR      57  53  86 W3        30.09R
CHICAGO IL     FAIR      67  50  54 NW9       30.00R
EAU CLAIRE WI  FAIR      58  50  75 W5        30.00R
LA CROSSE WI   NOT AVBL
$$

  *****  SOME NATIONAL WEATHER *****

CITY           SKY/WX    TMP DP  RH WIND       PRES   REMARKS
LA GUARDIA NY  TSTM      76  72  87 SW20G29   29.80R
RALEIGH NC     FAIR      81  72  74 SW12      29.95F
ATLANTA GA     FAIR      80  72  76 W6        30.03R
NEW ORLEANS LA FAIR      79  78  97 CALM      29.99S
OKLAHOMA CITY  RAIN      71  70  96 NE9       30.10R
ALBUQUERQUE NM CLOUDY    72  57  59 E23G36    30.27R
SALT LAKE CITY MOCLDY    78  51  38 S18       30.19R
LOS ANGELES CA FAIR      68  63  84 SW9       29.97R
BOISE ID       FAIR      80  49  33 CALM      29.98R
SEATTLE WA     FAIR      70  57  63 SW7       30.00R
$$

*** WEATHER ACROSS MANITOBA...SASKATCHEWAN AND ONTARIO ***
                ***ONTARIO***

CITY           SKY/WX    TMP DP  RH WIND       PRES   REMARKS
GERALDTON      CLOUDY    52  48  87 NW13G22   29.78R
THUNDER BAY    CLOUDY    55  50  82 W9        29.88R
SIOUX LOOKOUT  LGT RAIN  54  50  87 N7        29.98R
TORONTO        CLEAR     61  54  77 W12       29.77S
BIG TROUT LK   CLEAR     45  36  70 N7        29.98R
PICKLE LAKE    NOT AVBL
DRYDEN         CLOUDY    54  50  87 N9        30.00S
KENORA         CLOUDY    55  50  82 N7        30.03S
$$
                *** MANITOBA***

CITY           SKY/WX    TMP DP  RH WIND       PRES   REMARKS
BRANDON        MOCLDY    59  46  63 E3        30.08S
DAUPHIN        CLOUDY    57  52  82 S2        30.06R
ISLAND LAKE    PTCLDY    52  45  76 N6        30.08S
PILOT MOUND      N/A     55  46  71 E6          N/A
THE PAS        CLOUDY    63  54  72 S8        30.02S
THOMPSON       PTCLDY    37  37 100 E2        30.09S
WINNIPEG       PTCLDY    52  52 100 W3        30.08R
LYNN LAKE      MOCLDY    52  46  82 E5        30.07R
CHURCHILL      CLEAR     46  39  76 W6        30.08S
GILLAM         CLEAR     54  39  58 NE8       30.09R
$$
                ***SASKATCHEWAN***

CITY           SKY/WX    TMP DP  RH WIND       PRES   REMARKS
ESTEVAN        PTCLDY    61  43  51 SE8       30.07S
KINDERSLEY     PTCLDY    61  52  72 NE9       29.99S
LLOYDMINSTER   PTCLDY    61  55  82 CALM      30.01S
PRINCE ALBERT  MOCLDY    57  52  82 E5        30.01S
REGINA         CLOUDY    66  41  39 E10       30.03R
YORKTON        CLOUDY    63  48  59 S7        30.04F
N. BATTLEFORD  MOCLDY    63  54  72 NE8       30.01S
LA RONGE       PTCLDY    57  50  77 VRB2      30.03R
SASKATOON      PTCLDY    63  52  67 NE2       30.00S
SWIFT CURRENT  CLEAR     64  43  45 E8        30.03R
$$
NOTE: THESE ARE AUTOMATED STATIONS WITH LIMITED QUALITY CONTROL
      "FAIR" INDICATES FEW OR NO CLOUDS BELOW 12,000 FEET WITH NO
      SIGNIFICANT WEATHER AND/OR OBSTRUCTIONS TO VISIBILITY.
      SKY/WX - SKY CONDITION AND SIGNIFICANT WEATHER.
      TMP - AIR TEMPERATURE.    DP   - DEWPOINT TEMPERATURE.
      RH  - RELATIVE HUMIDITY.  PRES - PRESSURE.
      HX  - HEAT INDEX.         WCI  - WIND CHILL INDEX.
$




USA.gov is the U.S. government's official web portal to all federal, state and local government web resources and services.